sat.trackr.live / text

‹ back to catalog

STARLINK-36118

NORAD 67009 · 2025-293G

PAYLOAD ACTIVE UNKNOWN

§ Identity

Operator
Country
US
Launch date
2025-12-10
Launch site
AFWTR
Launch vehicle
Mass (kg)
RCS (m²)

Purposes: comms

External: N2YO · Heavens-Above · Gunter

§ Orbital elements

Epoch: 2026-09-20T14:12:58.035168Z

Period
96.11 min
Inclination
70.0011°
Eccentricity
0.0003602
Mean motion
14.98319843 rev/d
Perigee alt
569.6 km
Apogee alt
574.6 km
Semi-major
6,950.2 km
B*
1.6588e-4
RAAN
322.9876°
Arg perigee
272.2962°
Mean anomaly
87.7785°
Rev number
4,408

§ Raw data

STARLINK-361181 67009U 25293G   26263.59233837  .00001886  00000+0  16588-3 0  99952 67009  70.0011 322.9876 0003602 272.2962  87.7785 14.98319843 44089

JSON: /api/v1/satellites/67009 · /tle

For live sub-satellite position, see the globe view (requires WebGL).

§ Visibility from observer

Set your observer location to see the next 7 days of passes ≥ 10°. The values pass through the URL so the page stays shareable.

No JS? Fill the form by hand. The geolocation button needs JavaScript.